SWA3072 KMCO-KATL

Flight info

Callsign SWA3072
Flight time 1h 4m
Altitude 32000
Route JEEMY3 PAINN SHRKS LAIRI LARZZ JJEDI3
Aircraft B38M/M-SDE1FGHILORVWXY/HB1

Departure

Time 2026-05-07 03:51
Airport Orlando International Airport (KMCO)

Arrival

Time 2026-05-07 04:55
Airport Hartsfield Jackson Atlanta International Airport (KATL)
Time Latitude Longitude Altitude Speed Heading
2026-05-07 03:47 28.43521 -81.29939 101 ft 0 kts 268°
2026-05-07 03:48 28.43522 -81.29942 101 ft 1 kts 284°
2026-05-07 03:48 28.43531 -81.29946 101 ft 2 kts 357°
2026-05-07 03:48 28.43546 -81.29932 102 ft 5 kts 56°
2026-05-07 03:49 28.43552 -81.29867 103 ft 13 kts 88°
2026-05-07 03:49 28.43551 -81.29809 102 ft 4 kts 91°
2026-05-07 03:49 28.43551 -81.29720 103 ft 19 kts 91°
2026-05-07 03:49 28.43550 -81.29609 103 ft 7 kts 109°
2026-05-07 03:50 28.43485 -81.29591 102 ft 22 kts 178°
2026-05-07 03:50 28.43088 -81.29582 103 ft 91 kts 180°
2026-05-07 03:50 28.42253 -81.29584 98 ft 146 kts 177°
2026-05-07 03:50 28.41094 -81.29556 218 ft 181 kts 177°
2026-05-07 03:51 28.39879 -81.29433 1029 ft 174 kts 174°
2026-05-07 03:51 28.38649 -81.29262 1485 ft 185 kts 166°
2026-05-07 03:51 28.37432 -81.28702 2025 ft 195 kts 150°
2026-05-07 03:51 28.36248 -81.27773 2375 ft 219 kts 144°
2026-05-07 03:52 28.35008 -81.26656 2867 ft 236 kts 136°
2026-05-07 03:52 28.34191 -81.24986 3331 ft 256 kts 100°
2026-05-07 03:52 28.34462 -81.22971 3880 ft 267 kts 59°
2026-05-07 03:52 28.35758 -81.21581 4799 ft 261 kts 24°
2026-05-07 03:53 28.37581 -81.21161 5333 ft 273 kts 354°
2026-05-07 03:53 28.39407 -81.21659 6081 ft 275 kts 343°
2026-05-07 03:53 28.41278 -81.22321 6625 ft 287 kts 343°
2026-05-07 03:53 28.43186 -81.23024 7357 ft 288 kts 342°
2026-05-07 03:54 28.45108 -81.23697 8027 ft 293 kts 343°
2026-05-07 03:54 28.47068 -81.24365 8772 ft 294 kts 342°
2026-05-07 03:54 28.49037 -81.25045 9469 ft 297 kts 342°
2026-05-07 03:54 28.51019 -81.25736 10176 ft 300 kts 342°
2026-05-07 03:55 28.53067 -81.26451 10512 ft 317 kts 342°
2026-05-07 03:55 28.55234 -81.27210 10708 ft 336 kts 342°
2026-05-07 03:55 28.57523 -81.28011 10930 ft 352 kts 342°
2026-05-07 03:55 28.59886 -81.28840 11391 ft 357 kts 342°
2026-05-07 03:56 28.62265 -81.29674 12050 ft 359 kts 341°
2026-05-07 03:56 28.64663 -81.30517 12689 ft 361 kts 341°
2026-05-07 03:56 28.67081 -81.31366 13356 ft 364 kts 341°
2026-05-07 03:56 28.68713 -81.31939 13822 ft 366 kts 341°
2026-05-07 03:57 28.71129 -81.32789 14434 ft 368 kts 341°
2026-05-07 03:57 28.73588 -81.33654 15042 ft 371 kts 341°
2026-05-07 03:57 28.76069 -81.34527 15642 ft 374 kts 340°
2026-05-07 03:57 28.78564 -81.35405 16222 ft 377 kts 340°
2026-05-07 03:58 28.81079 -81.36290 16805 ft 379 kts 340°
2026-05-07 03:58 28.83610 -81.37182 17356 ft 382 kts 340°
2026-05-07 03:58 28.86158 -81.38081 17922 ft 385 kts 340°
2026-05-07 03:58 28.88731 -81.38988 18438 ft 388 kts 340°
2026-05-07 03:59 28.91317 -81.39901 18915 ft 390 kts 339°
2026-05-07 03:59 28.93912 -81.40817 19410 ft 391 kts 339°
2026-05-07 03:59 28.96593 -81.41428 19896 ft 397 kts 351°
2026-05-07 03:59 28.99349 -81.41729 20373 ft 399 kts 349°
2026-05-07 04:00 29.02124 -81.42043 20827 ft 401 kts 349°
2026-05-07 04:00 29.04875 -81.42351 21292 ft 403 kts 349°
2026-05-07 04:00 29.07670 -81.42663 21747 ft 405 kts 349°
2026-05-07 04:00 29.10524 -81.42955 22202 ft 407 kts 349°
2026-05-07 04:01 29.13317 -81.43219 22638 ft 409 kts 349°
2026-05-07 04:01 29.16163 -81.43489 23085 ft 411 kts 349°
2026-05-07 04:01 29.19027 -81.43761 23507 ft 413 kts 348°
2026-05-07 04:01 29.21900 -81.44035 23888 ft 415 kts 348°
2026-05-07 04:02 29.24782 -81.44310 24237 ft 418 kts 348°
2026-05-07 04:02 29.27695 -81.44588 24562 ft 420 kts 348°
2026-05-07 04:02 29.30620 -81.44867 24897 ft 422 kts 348°
2026-05-07 04:02 29.33558 -81.45148 25241 ft 424 kts 348°
2026-05-07 04:03 29.36510 -81.45431 25595 ft 426 kts 348°
2026-05-07 04:03 29.39471 -81.45714 25931 ft 428 kts 348°
2026-05-07 04:03 29.42418 -81.45996 26270 ft 430 kts 348°
2026-05-07 04:03 29.45407 -81.46283 26603 ft 432 kts 348°
2026-05-07 04:04 29.48419 -81.46572 26937 ft 435 kts 348°
2026-05-07 04:04 29.51438 -81.46862 27256 ft 437 kts 348°
2026-05-07 04:04 29.54477 -81.47154 27577 ft 439 kts 348°
2026-05-07 04:04 29.57526 -81.47442 27906 ft 441 kts 348°
2026-05-07 04:05 29.60587 -81.47719 28212 ft 443 kts 348°
2026-05-07 04:05 29.63669 -81.47999 28526 ft 445 kts 348°
2026-05-07 04:05 29.66769 -81.48280 28829 ft 446 kts 347°
2026-05-07 04:05 29.69870 -81.48562 29115 ft 449 kts 347°
2026-05-07 04:06 29.72988 -81.48846 29414 ft 450 kts 347°
2026-05-07 04:06 29.76119 -81.49131 29724 ft 452 kts 347°
2026-05-07 04:06 29.79265 -81.49418 30007 ft 454 kts 347°
2026-05-07 04:06 29.82379 -81.49702 30255 ft 456 kts 347°
2026-05-07 04:07 29.85539 -81.49990 30560 ft 455 kts 347°
2026-05-07 04:07 29.88682 -81.50336 30893 ft 449 kts 341°
2026-05-07 04:07 29.91636 -81.51297 31272 ft 438 kts 335°
2026-05-07 04:07 29.94561 -81.52312 31604 ft 439 kts 336°
2026-05-07 04:08 29.97479 -81.53335 31946 ft 437 kts 336°
2026-05-07 04:08 30.00381 -81.54365 32082 ft 436 kts 336°
2026-05-07 04:08 30.03273 -81.55397 32077 ft 433 kts 335°
2026-05-07 04:09 30.09021 -81.57453 32075 ft 432 kts 335°
2026-05-07 04:09 30.14763 -81.59510 32075 ft 433 kts 336°
2026-05-07 04:10 30.20519 -81.61575 32079 ft 434 kts 336°
2026-05-07 04:10 30.26285 -81.63646 32075 ft 434 kts 336°
2026-05-07 04:11 30.32066 -81.65724 32078 ft 435 kts 336°
2026-05-07 04:11 30.37855 -81.67808 32057 ft 436 kts 336°
2026-05-07 04:12 30.43612 -81.69884 32057 ft 436 kts 336°
2026-05-07 04:12 30.49408 -81.71976 32057 ft 436 kts 336°
2026-05-07 04:13 30.55213 -81.74073 32061 ft 437 kts 336°
2026-05-07 04:13 30.61021 -81.76175 32053 ft 437 kts 336°
2026-05-07 04:14 30.66405 -81.79017 32050 ft 431 kts 328°
2026-05-07 04:14 30.71777 -81.82110 32046 ft 431 kts 328°
2026-05-07 04:15 30.77149 -81.85217 32041 ft 431 kts 328°
2026-05-07 04:15 30.82523 -81.88330 32034 ft 431 kts 328°
2026-05-07 04:16 30.87894 -81.91445 32033 ft 431 kts 328°
2026-05-07 04:16 30.93263 -81.94562 32029 ft 431 kts 328°
2026-05-07 04:17 30.98637 -81.97687 32027 ft 431 kts 328°
2026-05-07 04:17 31.04003 -82.00811 32026 ft 431 kts 328°
2026-05-07 04:18 31.09366 -82.03938 32024 ft 431 kts 328°
2026-05-07 04:18 31.14734 -82.07070 32025 ft 431 kts 328°
2026-05-07 04:19 31.20100 -82.10207 32033 ft 431 kts 328°
2026-05-07 04:19 31.25464 -82.13345 32028 ft 431 kts 328°
2026-05-07 04:20 31.30763 -82.16450 32037 ft 431 kts 328°
2026-05-07 04:20 31.36118 -82.19591 32031 ft 431 kts 328°
2026-05-07 04:21 31.44162 -82.24318 32028 ft 430 kts 328°
2026-05-07 04:21 31.49478 -82.27447 32030 ft 431 kts 327°
2026-05-07 04:22 31.54832 -82.30601 32029 ft 430 kts 327°
2026-05-07 04:22 31.60174 -82.33754 32030 ft 430 kts 327°
2026-05-07 04:23 31.65521 -82.36913 32031 ft 429 kts 327°
2026-05-07 04:23 31.70852 -82.40066 32024 ft 429 kts 327°
2026-05-07 04:24 31.76185 -82.43225 32011 ft 429 kts 327°
2026-05-07 04:24 31.81517 -82.46387 32017 ft 429 kts 327°
2026-05-07 04:25 31.86850 -82.49554 32015 ft 429 kts 327°
2026-05-07 04:25 31.92174 -82.52719 32014 ft 429 kts 327°
2026-05-07 04:26 31.97245 -82.56192 32009 ft 417 kts 314°
2026-05-07 04:26 32.01694 -82.60682 32018 ft 419 kts 315°
2026-05-07 04:27 32.06079 -82.65123 32011 ft 418 kts 314°
2026-05-07 04:27 32.10479 -82.69612 32014 ft 418 kts 314°
2026-05-07 04:28 32.14880 -82.74109 32015 ft 417 kts 314°
2026-05-07 04:28 32.19265 -82.78596 32015 ft 417 kts 314°
2026-05-07 04:29 32.23650 -82.83090 32017 ft 417 kts 314°
2026-05-07 04:29 32.28024 -82.87578 32009 ft 416 kts 314°
2026-05-07 04:30 32.30212 -82.89825 31899 ft 417 kts 314°
2026-05-07 04:30 32.32398 -82.92072 31549 ft 415 kts 314°
2026-05-07 04:30 32.34575 -82.94310 31164 ft 416 kts 314°
2026-05-07 04:30 32.36761 -82.96560 30769 ft 417 kts 315°
2026-05-07 04:31 32.38956 -82.98817 30380 ft 418 kts 315°
2026-05-07 04:31 32.41129 -83.01051 29984 ft 420 kts 315°
2026-05-07 04:31 32.43343 -83.03329 29529 ft 422 kts 315°
2026-05-07 04:31 32.45562 -83.05615 29075 ft 424 kts 315°
2026-05-07 04:32 32.47789 -83.07909 28625 ft 426 kts 315°
2026-05-07 04:32 32.50030 -83.10220 28175 ft 428 kts 315°
2026-05-07 04:32 32.52266 -83.12526 27726 ft 424 kts 315°
2026-05-07 04:32 32.54479 -83.14811 27278 ft 416 kts 315°
2026-05-07 04:33 32.56638 -83.17042 26846 ft 408 kts 315°
2026-05-07 04:33 32.58759 -83.19236 26413 ft 402 kts 315°
2026-05-07 04:33 32.60846 -83.21400 25981 ft 396 kts 315°
2026-05-07 04:33 32.62903 -83.23534 25559 ft 390 kts 315°
2026-05-07 04:34 32.64931 -83.25639 25139 ft 385 kts 315°
2026-05-07 04:34 32.66938 -83.27724 24725 ft 381 kts 315°
2026-05-07 04:34 32.68919 -83.29782 24309 ft 377 kts 315°
2026-05-07 04:34 32.70883 -83.31825 23911 ft 373 kts 315°
2026-05-07 04:35 32.72829 -83.33849 23502 ft 370 kts 315°
2026-05-07 04:35 32.74758 -83.35859 23032 ft 367 kts 315°
2026-05-07 04:35 32.76670 -83.37850 22566 ft 364 kts 315°
2026-05-07 04:35 32.78571 -83.39832 22100 ft 362 kts 315°
2026-05-07 04:36 32.80453 -83.41796 21654 ft 359 kts 315°
2026-05-07 04:36 32.82324 -83.43748 21203 ft 356 kts 315°
2026-05-07 04:36 32.84179 -83.45686 20770 ft 354 kts 315°
2026-05-07 04:36 32.86025 -83.47613 20339 ft 352 kts 315°
2026-05-07 04:37 32.87847 -83.49518 19887 ft 344 kts 315°
2026-05-07 04:37 32.89624 -83.51377 19364 ft 336 kts 314°
2026-05-07 04:37 32.91368 -83.53202 18792 ft 331 kts 314°
2026-05-07 04:37 32.93083 -83.54998 18218 ft 326 kts 314°
2026-05-07 04:38 32.94776 -83.56770 17568 ft 321 kts 314°
2026-05-07 04:38 32.96444 -83.58518 16925 ft 317 kts 314°
2026-05-07 04:38 32.98070 -83.60220 16307 ft 314 kts 314°
2026-05-07 04:38 32.99699 -83.61927 15685 ft 311 kts 314°
2026-05-07 04:39 33.01320 -83.63626 15077 ft 309 kts 314°
2026-05-07 04:39 33.02929 -83.65314 14470 ft 307 kts 314°
2026-05-07 04:39 33.04532 -83.66995 13879 ft 306 kts 314°
2026-05-07 04:39 33.06132 -83.68676 13216 ft 306 kts 314°
2026-05-07 04:40 33.07727 -83.70351 12560 ft 305 kts 314°
2026-05-07 04:40 33.09314 -83.72019 11914 ft 303 kts 314°
2026-05-07 04:40 33.10893 -83.73679 11278 ft 302 kts 314°
2026-05-07 04:40 33.12468 -83.75336 10650 ft 301 kts 313°
2026-05-07 04:41 33.14032 -83.76982 10161 ft 296 kts 313°
2026-05-07 04:41 33.15036 -83.78042 10082 ft 289 kts 313°
2026-05-07 04:41 33.17037 -83.80154 10038 ft 280 kts 313°
2026-05-07 04:41 33.17989 -83.81160 10038 ft 271 kts 313°
2026-05-07 04:42 33.19344 -83.82652 10009 ft 259 kts 309°
2026-05-07 04:42 33.20593 -83.84149 9836 ft 251 kts 309°
2026-05-07 04:42 33.21823 -83.85618 9577 ft 251 kts 309°
2026-05-07 04:42 33.23078 -83.87111 9306 ft 258 kts 309°
2026-05-07 04:43 33.24364 -83.88636 9031 ft 262 kts 309°
2026-05-07 04:43 33.25662 -83.90175 8766 ft 264 kts 309°
2026-05-07 04:43 33.26968 -83.91724 8491 ft 265 kts 309°
2026-05-07 04:43 33.28277 -83.93277 8201 ft 265 kts 309°
2026-05-07 04:44 33.29580 -83.94825 7991 ft 261 kts 309°
2026-05-07 04:44 33.30860 -83.96357 7872 ft 261 kts 309°
2026-05-07 04:44 33.32132 -83.97880 7768 ft 262 kts 309°
2026-05-07 04:44 33.33421 -83.99423 7668 ft 262 kts 309°
2026-05-07 04:45 33.34706 -84.00962 7562 ft 261 kts 309°
2026-05-07 04:45 33.36040 -84.02461 7612 ft 267 kts 319°
2026-05-07 04:45 33.37797 -84.03157 8600 ft 272 kts 353°
2026-05-07 04:45 33.39757 -84.03033 9004 ft 288 kts 360°
2026-05-07 04:46 33.41716 -84.02781 9000 ft 277 kts
2026-05-07 04:46 33.43645 -84.02532 8726 ft 283 kts
2026-05-07 04:46 33.45619 -84.02296 8203 ft 287 kts
2026-05-07 04:46 33.47602 -84.02056 7826 ft 286 kts
2026-05-07 04:47 33.49584 -84.01837 7380 ft 285 kts 359°
2026-05-07 04:47 33.51550 -84.01654 7077 ft 281 kts 359°
2026-05-07 04:47 33.53505 -84.01473 6991 ft 282 kts 359°
2026-05-07 04:47 33.55458 -84.01343 6984 ft 279 kts 350°
2026-05-07 04:48 33.57192 -84.02089 6959 ft 260 kts 315°
2026-05-07 04:48 33.58429 -84.03635 6990 ft 257 kts 304°
2026-05-07 04:48 33.59568 -84.05280 6976 ft 257 kts 304°
2026-05-07 04:48 33.60711 -84.06935 6606 ft 256 kts 304°
2026-05-07 04:49 33.61837 -84.08562 6263 ft 251 kts 304°
2026-05-07 04:49 33.62763 -84.10260 5916 ft 236 kts 285°
2026-05-07 04:49 33.63072 -84.12135 5615 ft 225 kts 270°
2026-05-07 04:49 33.63141 -84.14001 5354 ft 223 kts 267°
2026-05-07 04:50 33.63166 -84.15831 5068 ft 221 kts 266°
2026-05-07 04:50 33.63174 -84.17680 4799 ft 221 kts 264°
2026-05-07 04:50 33.63177 -84.19514 4517 ft 219 kts 266°
2026-05-07 04:50 33.63178 -84.21339 4249 ft 218 kts 265°
2026-05-07 04:51 33.63179 -84.23110 4043 ft 203 kts 265°
2026-05-07 04:51 33.63181 -84.24732 3762 ft 187 kts 265°
2026-05-07 04:51 33.63187 -84.26207 3523 ft 167 kts 263°
2026-05-07 04:51 33.63184 -84.27583 3299 ft 165 kts 263°
2026-05-07 04:52 33.63182 -84.28962 3103 ft 164 kts 263°
2026-05-07 04:52 33.63182 -84.30310 2879 ft 159 kts 262°
2026-05-07 04:52 33.63181 -84.31626 2655 ft 158 kts 263°
2026-05-07 04:52 33.63181 -84.32941 2459 ft 157 kts 263°
2026-05-07 04:53 33.63184 -84.34234 2258 ft 154 kts 263°
2026-05-07 04:53 33.63187 -84.35492 2040 ft 154 kts 263°
2026-05-07 04:53 33.63185 -84.36779 1853 ft 155 kts 262°
2026-05-07 04:53 33.63183 -84.38063 1651 ft 153 kts 264°
2026-05-07 04:54 33.63187 -84.39339 1455 ft 153 kts 266°
2026-05-07 04:54 33.63176 -84.40611 1258 ft 150 kts 268°
2026-05-07 04:54 33.63182 -84.41853 1038 ft 149 kts 267°
2026-05-07 04:54 33.63180 -84.42987 1010 ft 106 kts 271°
2026-05-07 04:55 33.63183 -84.43602 1010 ft 43 kts 270°
2026-05-07 04:55 33.63184 -84.43956 1007 ft 42 kts 275°
2026-05-07 04:55 33.63268 -84.44242 1008 ft 23 kts 315°
2026-05-07 04:55 33.63360 -84.44233 1008 ft 12 kts 46°
2026-05-07 04:56 33.63414 -84.44196 1008 ft 7 kts
2026-05-07 04:56 33.63471 -84.44194 1009 ft 11 kts
2026-05-07 04:56 33.63569 -84.44180 1010 ft 7 kts 33°
2026-05-07 04:56 33.63579 -84.44150 1010 ft 7 kts 77°
2026-05-07 04:57 33.63581 -84.44055 1009 ft 16 kts 91°
2026-05-07 04:57 33.63581 -84.43905 1009 ft 19 kts 90°
2026-05-07 04:57 33.63582 -84.43738 1009 ft 21 kts 90°
2026-05-07 04:57 33.63581 -84.43558 1008 ft 22 kts 90°
2026-05-07 04:58 33.63582 -84.43486 1008 ft 0 kts 90°
2026-05-07 04:58 33.63582 -84.43476 1008 ft 3 kts 90°
2026-05-07 04:58 33.63585 -84.43463 1008 ft 2 kts 68°
2026-05-07 04:58 33.63597 -84.43442 1008 ft 4 kts 47°
2026-05-07 04:59 33.63629 -84.43428 1008 ft 7 kts
2026-05-07 04:59 33.63688 -84.43413 1008 ft 11 kts 10°
2026-05-07 04:59 33.63777 -84.43394 1008 ft 14 kts
2026-05-07 04:59 33.63878 -84.43393 1009 ft 15 kts
2026-05-07 05:00 33.63972 -84.43392 1009 ft 11 kts
2026-05-07 05:00 33.63986 -84.43392 1009 ft 2 kts
2026-05-07 05:00 33.64004 -84.43392 1009 ft 4 kts
2026-05-07 05:00 33.64009 -84.43391 1009 ft 0 kts 24°
2026-05-07 05:01 33.64010 -84.43388 1009 ft 0 kts 53°
2026-05-07 05:01 33.64015 -84.43369 1009 ft 6 kts 70°
2026-05-07 05:01 33.64019 -84.43329 1009 ft 2 kts 89°
2026-05-07 05:01 33.64019 -84.43317 1009 ft 0 kts 89°